Wetbulb
72.71 72.54 71.96 69.83 71.49 72.03 72.52 72.78 72.45 72.79 71.19 68.29 67.49 66.68 65.65 64.65 64.78 64.69 63.50 64.10 62.69 62.18
73.42 72.87 72.12 71.18 72.09 72.36 72.29 72.71 72.21 72.70 70.49 68.84 68.07 67.34 66.52 64.76 64.36 65.65 63.50 62.78 61.93 62.53
73.06 73.95 72.76 71.76 72.20 71.92 71.81 72.16 71.91 71.73 70.87 69.26 67.48 68.13 66.65 64.91 64.14 64.82 64.61 63.68 62.14 62.38
73.47 73.21 73.35 72.49 72.59 72.92 71.80 70.97 71.59 71.30 71.07 69.66 67.94 67.20 66.29 64.89 64.98 63.48 63.96 64.42 63.35 62.91
74.30 73.98 73.04 72.69 73.04 72.37 72.28 71.36 71.56 71.27 71.59 70.55 68.97 67.14 67.01 64.78 65.09 64.76 63.39 62.67 62.64 62.13
74.16 74.07 73.59 72.83 73.21 73.10 72.33 70.95 71.17 70.85 71.38 70.97 69.55 67.96 67.23 66.28 64.97 64.07 64.78 63.95 62.60 62.54
74.46 74.54 74.49 73.94 73.31 72.98 73.32 71.41 70.97 71.17 70.75 71.20 70.31 68.56 68.25 66.86 65.35 64.91 64.69 64.67 64.49 63.81
74.91 75.14 75.04 74.54 74.06 73.37 74.21 72.26 71.48 70.01 70.54 70.13 70.11 69.42 68.07 67.56 65.95 64.84 64.40 64.55 64.63 64.81
75.16 74.91 74.79 75.14 74.64 73.55 73.21 73.45 71.25 70.20 69.51 69.53 70.21 66.50 65.87 67.67 66.71 65.84 64.59 63.77 64.02 64.96
74.75 74.39 74.49 74.79 74.64 74.30 73.16 72.54 71.91 70.44 70.16 69.70 69.67 64.20 64.09 65.98 67.04 65.80 65.11 64.07 64.13 65.07
74.52 74.16 74.39 74.51 74.36 74.22 74.27 72.89 72.64 71.35 70.86 70.10 69.64 62.91 62.32 64.89 66.96 66.14 65.20 64.98 65.00 65.85
74.43 73.68 73.87 73.61 73.98 73.98 74.20 73.74 73.18 71.98 70.67 70.00 69.51 60.21 59.86 63.46 66.38 65.95 64.47 64.73 65.49 66.29
74.39 73.59 73.32 73.60 73.74 74.22 74.39 73.80 72.22 70.82 70.27 66.99 67.95 58.03 57.93 60.91 63.65 63.97 63.75 64.80 64.89 61.60
73.87 73.58 73.69 74.09 74.31 74.41 73.29 72.57 71.31 69.15 67.07 66.76 66.58 64.41 57.82 56.41 63.41 62.90 62.76 62.54 63.08 63.64
MSLP
1010.46 1011.11 1011.84 1012.55 1013.07 1013.18 1013.39 1013.65 1014.06 1014.53 1015.06 1015.33 1015.71 1016.18 1016.55 1017.15 1017.57 1017.98 1018.31 1018.60 1018.80 1018.91
1009.69 1010.36 1011.07 1011.79 1012.13 1012.40 1012.72 1013.00 1013.40 1014.06 1014.59 1015.05 1015.39 1015.65 1016.27 1016.88 1017.42 1017.75 1018.05 1018.35 1018.51 1018.63
1008.77 1009.62 1010.43 1011.01 1011.44 1011.75 1012.11 1012.42 1013.00 1013.63 1014.11 1014.57 1014.94 1015.34 1015.90 1016.48 1016.89 1017.36 1017.77 1017.99 1018.29 1018.35
1007.99 1008.78 1009.64 1010.19 1010.57 1010.95 1011.42 1011.87 1012.39 1013.00 1013.57 1013.94 1014.52 1014.99 1015.58 1016.06 1016.51 1016.99 1017.32 1017.51 1017.85 1018.13
1007.12 1007.91 1008.63 1009.09 1009.61 1010.17 1010.56 1011.11 1011.55 1012.19 1012.78 1013.29 1013.89 1014.46 1014.99 1015.65 1015.96 1016.41 1016.93 1017.21 1017.48 1017.69
1006.32 1006.99 1007.49 1007.96 1008.55 1009.18 1009.75 1010.29 1010.89 1011.50 1012.05 1012.66 1013.21 1013.91 1014.49 1014.78 1015.25 1015.69 1016.04 1016.50 1016.97 1017.26
1005.12 1005.64 1006.33 1006.93 1007.57 1008.09 1008.82 1009.55 1010.17 1010.70 1011.32 1011.89 1012.63 1013.30 1013.72 1014.05 1014.51 1015.01 1015.39 1015.89 1016.31 1016.60
1003.87 1004.60 1005.42 1006.07 1006.55 1007.25 1008.03 1008.63 1009.42 1010.25 1010.88 1011.42 1012.02 1012.38 1012.93 1013.33 1014.03 1014.38 1014.87 1015.30 1015.73 1015.82
1002.74 1003.65 1004.27 1005.03 1005.62 1006.37 1007.20 1007.89 1008.85 1009.76 1010.27 1010.86 1011.33 1011.51 1011.98 1012.42 1013.12 1013.79 1014.02 1014.67 1014.99 1015.26
1001.70 1002.50 1003.19 1004.05 1004.92 1005.52 1006.30 1007.45 1008.41 1009.14 1009.68 1010.61 1010.89 1010.93 1011.30 1012.09 1012.60 1013.34 1013.71 1014.14 1014.42 1014.68
1000.63 1001.32 1002.34 1003.19 1003.88 1004.84 1005.77 1006.65 1007.51 1008.29 1009.11 1010.07 1010.10 1010.26 1011.35 1011.77 1012.20 1012.82 1013.23 1013.44 1013.74 1014.19
999.58 1000.38 1001.35 1002.17 1002.94 1004.00 1005.00 1005.95 1006.58 1007.11 1007.96 1008.66 1008.50 1010.96 1011.12 1011.61 1011.97 1012.40 1012.77 1012.96 1013.33 1013.72
998.26 999.53 1000.30 1001.13 1002.18 1003.05 1004.03 1004.99 1005.86 1006.38 1007.07 1007.86 1008.54 1009.97 1010.60 1011.07 1011.58 1012.16 1012.69 1012.85 1013.21 1013.51
997.11 998.21 999.29 1000.47 1001.63 1002.61 1003.64 1004.65 1005.46 1006.36 1006.89 1007.49 1008.05 1009.06 1009.74 1010.67 1011.07 1011.46 1012.15 1012.52 1012.98 1013.32
Wind_Speed
16 10 8 8 6 8 9 10 12 11 9 8 8 8 7 5 4 5 4 6 4 3
15 14 10 9 10 8 10 9 10 11 11 10 9 9 8 5 6 5 5 5 4 3
17 14 10 9 11 9 9 10 10 11 12 12 11 10 9 6 5 6 4 4 5 4
15 15 12 11 11 11 11 12 12 13 13 14 12 10 9 7 7 7 7 5 6 7
15 15 16 15 13 10 12 12 14 14 14 14 13 11 11 10 9 8 8 7 6 7
17 16 17 17 16 12 12 12 13 14 15 14 13 12 11 11 10 10 9 8 8 7
19 19 17 17 16 15 13 12 13 13 14 14 13 12 13 12 12 10 9 8 8 8
19 17 17 17 17 14 13 13 13 12 11 11 12 11 13 13 11 12 8 7 7 8
19 18 18 17 16 15 12 12 11 12 12 12 10 15 16 15 12 10 11 9 7 7
19 18 18 17 16 15 15 11 12 12 12 12 13 14 16 12 9 8 8 9 8 7
19 19 17 16 17 14 13 13 13 13 13 10 9 11 17 16 8 8 9 9 9 8
20 18 17 18 17 14 13 13 13 13 14 14 17 10 13 12 8 10 8 6 6 7
19 18 17 18 17 13 14 14 11 12 10 11 12 15 14 13 6 7 4 4 4 7
19 19 17 14 13 14 13 11 11 9 6 10 11 13 16 13 7 6 5 4 4 4
Wind_Direction
196 201 199 184 181 196 191 189 187 185 177 175 166 171 170 169 173 173 186 189 191 171
198 201 195 178 189 191 191 190 184 180 176 179 177 178 169 170 176 176 192 208 198 191
200 197 191 180 190 187 189 190 176 178 182 182 183 179 173 172 182 177 196 206 205 213
197 195 188 196 196 193 189 192 185 183 187 187 183 182 182 177 179 181 197 205 206 231
192 188 197 206 207 191 194 192 189 185 188 189 189 184 187 182 191 184 194 206 205 219
195 191 198 203 207 199 196 189 186 186 191 189 189 188 193 188 186 194 195 196 200 213
197 195 198 201 205 205 195 186 191 190 189 192 187 190 193 190 192 193 195 194 202 204
199 196 196 200 203 201 199 193 187 184 191 189 186 193 197 196 196 196 187 194 204 209
194 194 197 198 199 197 189 187 172 181 183 180 195 196 188 189 193 204 192 202 211 218
195 195 196 194 192 194 191 164 169 173 179 191 205 203 188 193 188 185 196 203 203 212
197 196 192 189 192 184 183 170 172 178 182 193 231 191 184 183 173 195 206 210 200 206
198 193 187 190 187 178 174 176 180 181 170 179 181 194 160 169 188 208 209 204 195 197
190 190 188 188 182 176 172 173 171 181 196 187 161 166 167 192 190 199 183 178 198 205
186 186 186 171 166 161 165 165 169 173 162 156 152 178 197 177 174 168 173 176 188 201